Location: Unspecified
(49.9407°N, 0.0000°E)
Time: 03:46:46
(UTC+00:00)

RS-44 - Visible Passes

Search period start: 04 April 2026 00:00
Search period end: 14 April 2026 00:00
Orbit: 1175 x 1510 km, 82.5° (Epoch: 29 March)

Date Brightness Start Highest point End Pass type
(mag) Time Alt. Az. Time Alt. Az. Time Alt. Az.
4 Apr ? 01:39:36 10° NNW 01:47:29 38° W 01:47:59 38° W visible
4 Apr ? 22:16:28 10° N 22:23:28 25° ENE 22:26:28 21° E visible
5 Apr ? 00:09:24 10° N 00:18:19 85° E 00:19:03 78° SSE visible
5 Apr ? 02:03:54 10° NNW 02:10:47 27° WNW 02:11:38 26° W visible
5 Apr ? 22:39:57 10° N 22:47:54 35° ENE 22:50:07 31° E visible
6 Apr ? 00:33:16 10° NNW 00:42:04 70° W 00:42:42 68° WSW visible
6 Apr ? 02:28:36 10° NW 02:33:56 18° WNW 02:35:18 17° W visible
6 Apr ? 21:11:40 10° NNE 21:16:01 14° NE 21:20:22 10° ENE visible
6 Apr ? 23:03:35 10° N 23:12:07 49° ENE 23:13:46 44° E visible
7 Apr ? 00:57:15 10° NNW 01:05:40 50° W 01:06:22 49° WSW visible
7 Apr ? 02:54:37 10° NW 02:56:53 11° WNW 02:58:57 10° W visible
7 Apr ? 21:34:41 10° N 21:40:48 20° NE 21:44:51 15° E visible
7 Apr ? 23:27:17 10° N 23:36:10 68° ENE 23:37:27 61° ESE visible
8 Apr ? 01:21:23 10° NNW 01:29:05 35° W 01:30:02 34° W visible
8 Apr ? 21:58:02 10° N 22:05:22 28° ENE 22:08:32 23° E visible
8 Apr ? 23:51:06 10° N 00:00:03 88° W 00:01:08 73° S visible
9 Apr ? 01:45:46 10° NNW 01:52:21 24° WNW 01:53:43 23° W visible
9 Apr ? 20:30:49 10° NNE 20:33:02 11° NE 20:35:15 10° NE visible
9 Apr ? 22:21:35 10° N 22:29:45 38° ENE 22:32:13 33° E visible
10 Apr ? 00:15:00 10° NNW 00:23:46 64° W 00:24:49 60° SW visible
10 Apr ? 02:10:39 10° NW 02:15:26 16° WNW 02:17:25 15° W visible
10 Apr ? 20:53:03 10° N 20:57:59 16° NE 21:02:55 10° E visible
10 Apr ? 22:45:14 10° N 22:53:56 53° ENE 22:55:56 46° ESE visible
11 Apr ? 00:39:01 10° NNW 00:47:19 45° W 00:48:31 43° WSW visible
11 Apr ? 21:16:13 10° N 21:22:44 22° NE 21:27:02 16° E visible
11 Apr ? 23:08:58 10° N 23:17:57 74° ENE 23:19:38 61° SE visible
12 Apr ? 01:03:12 10° NNW 01:10:41 32° W 01:12:13 30° W visible
12 Apr ? 21:39:39 10° N 21:47:16 30° ENE 21:50:45 23° E visible
12 Apr ? 23:32:49 10° NNW 23:41:47 82° W 23:43:21 65° SSW visible
13 Apr ? 01:27:41 10° NNW 01:33:53 22° WNW 01:35:56 20° W visible
13 Apr ? 20:11:51 10° NNE 20:15:03 12° NE 20:18:15 10° ENE visible
13 Apr ? 22:03:14 10° N 22:11:36 42° ENE 22:14:29 33° ESE visible
